sat.trackr.live / text

‹ back to catalog

STARLINK-4636

NORAD 53731 · 2022-107AH

PAYLOAD ACTIVE UNKNOWN

§ Identity

Operator
Country
US
Launch date
2022-09-05
Launch site
AFETR
Launch vehicle
Mass (kg)
RCS (m²)

Purposes: comms

External: N2YO · Heavens-Above · Gunter

§ Orbital elements

Epoch: 2026-05-25T00:51:22.876416Z

Period
95.03 min
Inclination
53.2145°
Eccentricity
0.0004350
Mean motion
15.15306687 rev/d
Perigee alt
517.0 km
Apogee alt
523.0 km
Semi-major
6,898.2 km
B*
1.4722e-3
RAAN
268.2821°
Arg perigee
29.4791°
Mean anomaly
330.6448°
Rev number
20,615

§ Raw data

STARLINK-46361 53731U 22107AH  26145.03568144  .00027861  00000+0  14722-2 0  99912 53731  53.2145 268.2821 0004350  29.4791 330.6448 15.15306687206158

JSON: /api/v1/satellites/53731 · /tle

For live sub-satellite position, see the globe view (requires WebGL).

§ Visibility from observer

Set your observer location to see the next 7 days of passes ≥ 10°. The values pass through the URL so the page stays shareable.

No JS? Fill the form by hand. The geolocation button needs JavaScript.